Hourly Weather Kajew

Today, 1 March, Monday

Time Temperature Precipitation Wind Pressure Humidity
00:00 +1°C° 0 mm 3 mps 764 mmHg 90%
01:00 +1°C° 0 mm 3 mps 764 mmHg 91%
02:00 +1°C° 0 mm 2 mps 764 mmHg 92%
03:00 +1°C° 0 mm 2 mps 764 mmHg 93%
04:00 +1°C° 0 mm 2 mps 764 mmHg 95%
05:00 +1°C° 0 mm 2 mps 764 mmHg 95%
06:00 -1°C° 0 mm 2 mps 764 mmHg 95%
07:00 -1°C° 0 mm 2 mps 764 mmHg 96%
08:00 +1°C° 0 mm 2 mps 765 mmHg 92%
09:00 +2°C° 0 mm 2 mps 765 mmHg 87%
10:00 +4°C° 0 mm 2 mps 765 mmHg 83%
11:00 +5°C° 0 mm 2 mps 765 mmHg 79%
12:00 +6°C° 0 mm 2 mps 765 mmHg 75%
13:00 +7°C° 0 mm 3 mps 765 mmHg 71%
14:00 +7°C° 0 mm 2 mps 765 mmHg 71%
15:00 +7°C° 0 mm 2 mps 764 mmHg 70%
16:00 +7°C° 0 mm 2 mps 764 mmHg 70%
17:00 +6°C° 0 mm 2 mps 764 mmHg 74%
18:00 +5°C° 0 mm 2 mps 764 mmHg 79%
19:00 +4°C° 0 mm 2 mps 764 mmHg 83%
20:00 +4°C° 0 mm 2 mps 764 mmHg 85%
21:00 +3°C° 0 mm 2 mps 764 mmHg 86%
22:00 +3°C° 0 mm 2 mps 764 mmHg 87%
23:00 +3°C° 0 mm 2 mps 764 mmHg 87%

Tomorrow, 2 March, Tuesday

Time Temperature Precipitation Wind Pressure Humidity
00:00 +3°C° 0 mm 2 mps 764 mmHg 88%
01:00 +2°C° 0 mm 2 mps 764 mmHg 88%
02:00 +2°C° 0 mm 2 mps 764 mmHg 89%
03:00 +2°C° 0 mm 2 mps 763 mmHg 89%
04:00 +2°C° 0 mm 2 mps 763 mmHg 89%
05:00 +2°C° 0 mm 2 mps 763 mmHg 90%
06:00 0°C° 0 mm 3 mps 763 mmHg 90%
07:00 0°C° 0 mm 3 mps 763 mmHg 90%
08:00 +2°C° 0 mm 3 mps 763 mmHg 84%
09:00 +4°C° 0 mm 3 mps 763 mmHg 79%
10:00 +5°C° 0 mm 3 mps 763 mmHg 73%
11:00 +8°C° 0 mm 3 mps 763 mmHg 69%
12:00 +9°C° 0 mm 3 mps 763 mmHg 65%
13:00 +10°C° 0 mm 4 mps 763 mmHg 61%
14:00 +10°C° 0 mm 3 mps 763 mmHg 61%
15:00 +10°C° 0 mm 3 mps 762 mmHg 61%
16:00 +10°C° 0 mm 3 mps 762 mmHg 61%
17:00 +9°C° 0 mm 2 mps 762 mmHg 67%
18:00 +8°C° 0 mm 2 mps 762 mmHg 72%
19:00 +6°C° 0 mm 2 mps 762 mmHg 77%
20:00 +6°C° 0 mm 2 mps 762 mmHg 79%
21:00 +6°C° 0 mm 1 mps 763 mmHg 80%
22:00 +6°C° 0 mm 1 mps 763 mmHg 82%
23:00 +5°C° 0 mm 1 mps 763 mmHg 83%

Day after tomorrow, 3 March, Wednesday

Time Temperature Precipitation Wind Pressure Humidity
00:00 +5°C° 0 mm 1 mps 763 mmHg 84%
01:00 +3°C° 0 mm 0 mps 763 mmHg 85%
02:00 +3°C° 0 mm 0 mps 762 mmHg 85%
03:00 +3°C° 0 mm 0 mps 762 mmHg 86%
04:00 +2°C° 0 mm 0 mps 762 mmHg 86%
05:00 +3°C° 0 mm 1 mps 761 mmHg 86%
06:00 +3°C° 0 mm 1 mps 761 mmHg 86%
07:00 +3°C° 0 mm 1 mps 761 mmHg 86%
08:00 +5°C° 0 mm 1 mps 761 mmHg 79%
09:00 +6°C° 0 mm 1 mps 761 mmHg 73%
10:00 +8°C° 0 mm 1 mps 761 mmHg 66%
11:00 +9°C° 0 mm 1 mps 760 mmHg 61%
12:00 +11°C° 0 mm 1 mps 760 mmHg 57%
13:00 +12°C° 0 mm 2 mps 759 mmHg 52%
14:00 +12°C° 0 mm 2 mps 758 mmHg 53%
15:00 +12°C° 0 mm 1 mps 758 mmHg 54%
16:00 +13°C° 0 mm 1 mps 757 mmHg 55%
17:00 +10°C° 0 mm 2 mps 756 mmHg 60%
18:00 +9°C° 0 mm 2 mps 756 mmHg 65%
19:00 +7°C° 0 mm 2 mps 756 mmHg 69%
20:00 +7°C° 0 mm 2 mps 755 mmHg 71%
21:00 +6°C° 0 mm 2 mps 755 mmHg 72%
22:00 +5°C° 0 mm 3 mps 754 mmHg 73%
23:00 +4°C° 0 mm 3 mps 754 mmHg 76%

4 March, Thursday

Time Temperature Precipitation Wind Pressure Humidity
00:00 +4°C° 0 mm 3 mps 753 mmHg 78%
01:00 +3°C° 0 mm 4 mps 753 mmHg 81%
02:00 +3°C° 0 mm 4 mps 752 mmHg 82%
03:00 +3°C° 0 mm 4 mps 752 mmHg 84%
04:00 +3°C° 0 mm 4 mps 751 mmHg 86%
05:00 +3°C° 0 mm 4 mps 751 mmHg 88%
06:00 +3°C° 0 mm 4 mps 750 mmHg 89%
07:00 +3°C° 0 mm 4 mps 750 mmHg 91%
08:00 +4°C° 0 mm 4 mps 750 mmHg 88%
09:00 +5°C° 0 mm 5 mps 750 mmHg 85%
10:00 +6°C° 0 mm 5 mps 749 mmHg 81%
11:00 +7°C° 0 mm 5 mps 749 mmHg 78%
12:00 +7°C° 0 mm 5 mps 749 mmHg 75%
13:00 +8°C° 0 mm 5 mps 749 mmHg 71%
14:00 +8°C° 0 mm 5 mps 748 mmHg 71%
15:00 +8°C° 0 mm 4 mps 748 mmHg 70%
16:00 +8°C° 0 mm 4 mps 747 mmHg 69%
17:00 +8°C° 0.1 mm 3 mps 747 mmHg 73%
18:00 +7°C° 0.1 mm 2 mps 747 mmHg 78%
19:00 +7°C° 0.1 mm 2 mps 746 mmHg 82%
20:00 +6°C° 0.2 mm 2 mps 746 mmHg 83%
21:00 +6°C° 0.2 mm 2 mps 746 mmHg 84%
22:00 +6°C° 0.2 mm 2 mps 746 mmHg 85%
23:00 +5°C° 0.3 mm 2 mps 746 mmHg 86%

5 March, Friday

Time Temperature Precipitation Wind Pressure Humidity
00:00 +4°C° 0.3 mm 2 mps 745 mmHg 87%
01:00 +4°C° 0.3 mm 2 mps 745 mmHg 87%
02:00 +3°C° 0.2 mm 2 mps 745 mmHg 89%
03:00 +2°C° 0.2 mm 3 mps 745 mmHg 90%
04:00 +2°C° 0.2 mm 3 mps 745 mmHg 92%
05:00 0°C° 0.2 mm 4 mps 746 mmHg 93%
06:00 -1°C° 0.2 mm 4 mps 746 mmHg 94%
07:00 -1°C° 0.2 mm 5 mps 747 mmHg 95%
08:00 -3°C° 0.3 mm 6 mps 747 mmHg 92%
09:00 -3°C° 0.3 mm 6 mps 748 mmHg 89%
10:00 -3°C° 0.3 mm 6 mps 749 mmHg 87%
11:00 -2°C° 0.1 mm 6 mps 749 mmHg 77%
12:00 -1°C° 0.1 mm 6 mps 750 mmHg 67%
13:00 0°C° 0.1 mm 5 mps 751 mmHg 58%
14:00 0°C° 0 mm 5 mps 751 mmHg 55%
15:00 0°C° 0 mm 4 mps 751 mmHg 52%
16:00 0°C° 0 mm 4 mps 752 mmHg 48%
17:00 +1°C° 0 mm 3 mps 752 mmHg 54%
18:00 0°C° 0 mm 3 mps 753 mmHg 60%
19:00 -1°C° 0 mm 2 mps 754 mmHg 66%
20:00 -1°C° 0 mm 2 mps 754 mmHg 68%
21:00 -2°C° 0 mm 3 mps 755 mmHg 71%
22:00 -2°C° 0 mm 3 mps 756 mmHg 73%
23:00 -3°C° 0 mm 2 mps 756 mmHg 72%

6 March, Saturday

Time Temperature Precipitation Wind Pressure Humidity
00:00 -3°C° 0 mm 2 mps 756 mmHg 71%
01:00 -3°C° 0 mm 2 mps 757 mmHg 70%
02:00 -3°C° 0 mm 2 mps 757 mmHg 71%
03:00 -3°C° 0 mm 2 mps 757 mmHg 72%
04:00 -3°C° 0 mm 2 mps 758 mmHg 73%
05:00 -4°C° 0 mm 3 mps 758 mmHg 73%
06:00 -4°C° 0 mm 3 mps 759 mmHg 73%
07:00 -4°C° 0 mm 3 mps 760 mmHg 73%
08:00 -2°C° 0 mm 3 mps 760 mmHg 64%
09:00 -2°C° 0 mm 4 mps 760 mmHg 55%
10:00 -1°C° 0 mm 4 mps 761 mmHg 46%
11:00 -1°C° 0 mm 4 mps 761 mmHg 43%
12:00 0°C° 0 mm 4 mps 761 mmHg 40%
13:00 0°C° 0 mm 4 mps 762 mmHg 37%
14:00 0°C° 0 mm 4 mps 762 mmHg 40%
15:00 +1°C° 0 mm 3 mps 762 mmHg 43%
16:00 +1°C° 0 mm 3 mps 762 mmHg 45%
17:00 0°C° 0 mm 3 mps 762 mmHg 51%
18:00 -1°C° 0 mm 3 mps 762 mmHg 56%
19:00 -2°C° 0 mm 2 mps 763 mmHg 61%
20:00 -2°C° 0 mm 2 mps 763 mmHg 61%
21:00 -2°C° 0 mm 2 mps 763 mmHg 62%
22:00 -2°C° 0 mm 2 mps 763 mmHg 62%
23:00 -2°C° 0 mm 3 mps 763 mmHg 62%
Show more

We Need Your Consent

Meteoprog and our Service Providers may store and access personal data such as cookies, device identifiers or other similar technologies on your device and process such data to personalise content and ads, as well as provide social media features and to analyse the traffic.

  • Store and/or access information on your device

    Cookies, device identifiers or other information can be stored or accessed on your device for the purposes indicated above.

  • Personalised ads and content, ad and content measurement, audience insights, and products development

    Ads and content can be personalised based on a profile. More data can be added to better personalise ads and content. Ad and content performance can be measured. Insights about the audience who saw the ads and content can be derived. Such data can be used to develop or improve user’s experience, systems and software.

By clicking ‘I Agree’ you will allow the use of indicated cookies, device identifiers, web beacons or other similar technologies. Your settings can be changed in the browser on your device.

For certain purposes, legitimate interests may be relied on, rather than consent. You can read more about this in our Privacy and Cookie Policy.